TimeCDT,TemperatureF,Dew PointF,Humidity,Sea Level PressureIn,VisibilityMPH,Wind Direction,Wind SpeedMPH,Gust SpeedMPH,PrecipitationIn,Events,Conditions,WindDirDegrees,DateUTC
12:17 AM,33.8,30.2,87,29.80,4.0,West,15.0,24.2,N/A,Snow,Light Snow,260,2012-10-05 05:17:00
12:37 AM,33.8,30.2,87,29.81,5.0,West,17.3,26.5,N/A,Snow,Light Snow,260,2012-10-05 05:37:00
12:56 AM,33.8,30.2,87,29.81,10.0,West,17.3,25.3,N/A,Snow,Light Snow,260,2012-10-05 05:56:00
1:17 AM,33.8,30.2,87,29.81,5.0,West,17.3,27.6,N/A,Snow,Light Snow,260,2012-10-05 06:17:00
1:36 AM,33.8,30.2,87,29.81,7.0,West,18.4,27.6,N/A,,Overcast,260,2012-10-05 06:36:00
1:56 AM,33.8,30.2,87,29.81,7.0,West,16.1,24.2,N/A,Snow,Light Snow,260,2012-10-05 06:56:00
2:17 AM,33.8,30.2,87,29.82,7.0,West,18.4,27.6,N/A,Snow,Light Snow,260,2012-10-05 07:17:00
2:36 AM,33.8,28.4,81,29.81,10.0,West,16.1,25.3,N/A,,Overcast,260,2012-10-05 07:36:00
2:57 AM,33.8,28.4,81,29.81,5.0,West,18.4,26.5,N/A,Snow,Light Snow,260,2012-10-05 07:57:00
3:17 AM,32.0,28.4,87,29.81,7.0,West,15.0,24.2,N/A,Snow,Light Snow,260,2012-10-05 08:17:00
3:36 AM,32.0,28.4,87,29.81,7.0,West,15.0,25.3,N/A,,Overcast,260,2012-10-05 08:36:00
3:57 AM,32.0,28.4,87,29.81,10.0,West,18.4,27.6,N/A,,Overcast,270,2012-10-05 08:57:00
4:16 AM,32.0,28.4,87,29.81,10.0,West,17.3,28.8,N/A,,Overcast,260,2012-10-05 09:16:00
4:36 AM,32.0,28.4,87,29.82,10.0,West,19.6,26.5,N/A,,Overcast,260,2012-10-05 09:36:00
4:57 AM,33.8,28.4,81,29.82,10.0,West,16.1,26.5,N/A,,Overcast,260,2012-10-05 09:57:00
5:16 AM,32.0,28.4,87,29.82,10.0,West,20.7,25.3,N/A,,Overcast,260,2012-10-05 10:16:00
5:36 AM,32.0,28.4,87,29.82,10.0,West,15.0,27.6,N/A,,Overcast,270,2012-10-05 10:36:00
5:57 AM,32.0,28.4,87,29.82,10.0,West,21.9,26.5,N/A,,Overcast,270,2012-10-05 10:57:00
6:17 AM,32.0,28.4,87,29.82,10.0,West,15.0,29.9,N/A,,Overcast,260,2012-10-05 11:17:00
6:36 AM,32.0,28.4,87,29.82,10.0,WSW,16.1,25.3,N/A,,Overcast,250,2012-10-05 11:36:00
6:57 AM,32.0,28.4,87,29.82,10.0,West,16.1,25.3,N/A,,Overcast,270,2012-10-05 11:57:00
7:16 AM,32.0,28.4,87,29.82,10.0,West,15.0,20.7,N/A,,Overcast,260,2012-10-05 12:16:00
7:37 AM,32.0,28.4,87,29.83,10.0,West,18.4,28.8,N/A,,Overcast,260,2012-10-05 12:37:00
7:56 AM,32.0,28.4,87,29.83,10.0,West,13.8,21.9,N/A,,Overcast,270,2012-10-05 12:56:00
8:17 AM,32.0,28.4,87,29.83,10.0,West,18.4,27.6,N/A,,Overcast,270,2012-10-05 13:17:00
8:37 AM,33.8,28.4,81,29.83,10.0,West,16.1,26.5,N/A,,Overcast,270,2012-10-05 13:37:00
8:56 AM,32.0,28.4,87,29.83,1.8,West,16.1,24.2,N/A,Snow,Light Snow,270,2012-10-05 13:56:00
9:17 AM,32.0,30.2,93,29.84,1.5,West,13.8,24.2,N/A,Snow,Light Snow,270,2012-10-05 14:17:00
9:37 AM,32.0,30.2,93,29.84,4.0,West,12.7,21.9,N/A,Snow,Light Snow,260,2012-10-05 14:37:00
9:56 AM,33.8,30.2,87,29.86,7.0,West,13.8,25.3,N/A,Snow,Light Snow,260,2012-10-05 14:56:00
10:17 AM,33.8,30.2,87,29.86,5.0,West,13.8,23.0,N/A,Snow,Light Snow,270,2012-10-05 15:17:00
10:37 AM,33.8,30.2,87,29.87,1.2,West,10.4,21.9,N/A,Snow,Light Snow,270,2012-10-05 15:37:00
10:56 AM,32.0,30.2,93,29.87,1.2,West,16.1,19.6,N/A,Snow,Light Snow,270,2012-10-05 15:56:00
11:36 AM,32.0,30.2,93,29.88,1.5,West,13.8,20.7,0.01,Snow,Light Snow,260,2012-10-05 16:36:00
11:57 AM,33.8,30.2,87,29.89,1.8,West,12.7,18.4,N/A,Snow,Light Snow,270,2012-10-05 16:57:00
12:17 PM,33.8,30.2,87,29.89,2.5,West,10.4,-,N/A,Snow,Light Snow,270,2012-10-05 17:17:00
12:36 PM,33.8,30.2,87,29.90,4.0,West,15.0,21.9,N/A,Snow,Light Snow,270,2012-10-05 17:36:00
12:57 PM,33.8,32.0,93,29.90,7.0,West,11.5,23.0,N/A,,Overcast,270,2012-10-05 17:57:00
1:36 PM,35.6,33.8,93,29.90,10.0,West,17.3,23.0,N/A,,Overcast,280,2012-10-05 18:36:00
1:57 PM,37.4,33.8,87,29.90,10.0,West,15.0,24.2,N/A,,Overcast,270,2012-10-05 18:57:00
2:16 PM,37.4,32.0,81,29.90,10.0,West,17.3,24.2,N/A,,Overcast,280,2012-10-05 19:16:00
2:37 PM,37.4,33.8,87,29.90,10.0,WNW,17.3,23.0,N/A,,Overcast,290,2012-10-05 19:37:00
2:57 PM,37.4,33.8,87,29.91,10.0,West,13.8,21.9,N/A,,Overcast,280,2012-10-05 19:57:00
3:16 PM,37.4,33.8,87,29.92,10.0,West,13.8,18.4,N/A,,Overcast,280,2012-10-05 20:16:00
3:37 PM,37.4,33.8,87,29.92,10.0,West,13.8,17.3,N/A,Rain,Light Rain,280,2012-10-05 20:37:00
3:57 PM,37.4,33.8,87,29.93,10.0,West,15.0,23.0,N/A,Rain,Light Rain,280,2012-10-05 20:57:00
4:16 PM,35.6,33.8,93,29.93,7.0,WNW,8.1,-,N/A,Rain,Rain,290,2012-10-05 21:16:00
4:37 PM,35.6,33.8,93,29.94,7.0,WNW,6.9,-,N/A,Rain,Light Rain,300,2012-10-05 21:37:00
4:57 PM,35.6,33.8,93,29.95,4.0,WNW,9.2,-,N/A,Rain,Light Rain,300,2012-10-05 21:57:00
5:16 PM,35.6,33.8,93,29.95,10.0,WNW,8.1,-,N/A,Rain,Light Rain,290,2012-10-05 22:16:00
5:37 PM,35.6,33.8,93,29.96,7.0,WNW,6.9,-,N/A,Rain,Light Rain,290,2012-10-05 22:37:00
6:16 PM,35.6,33.8,93,29.98,7.0,WNW,6.9,-,N/A,Rain,Rain,300,2012-10-05 23:16:00
6:37 PM,35.6,33.8,93,29.99,10.0,WNW,6.9,-,N/A,Rain,Light Rain,290,2012-10-05 23:37:00
6:57 PM,35.6,33.8,93,29.99,7.0,WNW,6.9,-,N/A,Rain,Light Rain,290,2012-10-05 23:57:00
7:16 PM,35.6,33.8,93,30.00,10.0,NNW,8.1,-,N/A,,Light Drizzle,330,2012-10-06 00:16:00
7:37 PM,35.6,32.0,87,30.01,10.0,NNW,6.9,-,N/A,,Overcast,330,2012-10-06 00:37:00
7:57 PM,33.8,32.0,93,30.02,10.0,NW,8.1,-,N/A,Snow,Light Snow,320,2012-10-06 00:57:00
8:16 PM,33.8,32.0,93,30.02,10.0,NNW,6.9,-,N/A,Rain,Light Rain,330,2012-10-06 01:16:00
8:37 PM,33.8,32.0,93,30.03,10.0,NNW,5.8,-,N/A,Snow,Light Snow,340,2012-10-06 01:37:00
8:56 PM,33.8,32.0,93,30.04,5.0,NNW,5.8,-,N/A,Snow,Light Snow,330,2012-10-06 01:56:00
9:16 PM,33.8,30.2,87,30.04,10.0,NNW,4.6,-,N/A,Snow,Light Snow,340,2012-10-06 02:16:00
9:37 PM,33.8,30.2,87,30.05,5.0,NNW,5.8,-,N/A,Snow,Light Snow,330,2012-10-06 02:37:00
9:56 PM,33.8,30.2,87,30.06,10.0,North,8.1,-,N/A,,Mostly Cloudy,350,2012-10-06 02:56:00
10:37 PM,32.0,30.2,93,30.07,10.0,NNW,5.8,-,N/A,,Mostly Cloudy,330,2012-10-06 03:37:00
10:56 PM,32.0,30.2,93,30.07,10.0,NNW,8.1,-,N/A,,Overcast,340,2012-10-06 03:56:00
11:17 PM,32.0,30.2,93,30.08,10.0,NNW,5.8,-,N/A,,Mostly Cloudy,340,2012-10-06 04:17:00
11:37 PM,32.0,28.4,87,30.08,10.0,NNW,3.5,-,N/A,,Mostly Cloudy,340,2012-10-06 04:37:00
11:56 PM,30.2,28.4,93,30.08,10.0,NNW,3.5,-,N/A,,Mostly Cloudy,330,2012-10-06 04:56:00